Location: Moena
(46.3667°N, 11.6500°E)
Time: 08:45:00
(UTC+00:00)

GP-B - Pass Details

Date: 22 June 2021
Orbit: 631 x 635 km, 89.8° (Epoch: 28 July)

Event Time Altitude Azimuth Distance (km) Brightness Sun altitude
Rises 22:24:08 0° 8° (N) 2,943 7.8 -19.2°
Reaches altitude 10° 22:26:31 10° 17° (NNE) 2,029 6.6 -19.3°
Maximum altitude 22:30:40 37° 85° (E) 982 4.0 -19.5°
Enters shadow 22:31:49 32° 119° (ESE) 1,097 4.0 -19.5°
